Tabellarische Ansicht des 5.6.2022


Die einzelnen Werte des Tages

Uhrzeit Temperatur Luftdruck Luftfeuchte Wind Hi-Wind Taupunkt THW Index Wind Chill Heat Index Solar- strahlung Regen

00:00

14.1 C

1017.1 hpa

69 %

0.0 km/h aus 117

0.0 km/h aus ---

8.5 C

13.6 C

14.1 C

13.6 C

0 W/m

0.00 mm

00:05

14.0 C

1017.1 hpa

70 %

0.0 km/h aus 115

0.0 km/h aus ---

8.6 C

13.6 C

14.0 C

13.6 C

0 W/m

0.00 mm

00:10

13.8 C

1017.1 hpa

70 %

0.0 km/h aus 117

0.0 km/h aus ---

8.5 C

13.4 C

13.8 C

13.4 C

0 W/m

0.00 mm

00:15

13.8 C

1016.9 hpa

70 %

0.0 km/h aus 116

0.0 km/h aus ---

8.4 C

13.3 C

13.8 C

13.3 C

0 W/m

0.00 mm

00:20

13.7 C

1016.9 hpa

70 %

0.0 km/h aus 115

0.0 km/h aus ---

8.3 C

13.2 C

13.7 C

13.2 C

0 W/m

0.00 mm

00:25

13.6 C

1016.9 hpa

71 %

0.0 km/h aus 114

0.0 km/h aus ---

8.4 C

13.1 C

13.6 C

13.1 C

0 W/m

0.00 mm

00:30

13.4 C

1016.9 hpa

71 %

0.0 km/h aus 117

0.0 km/h aus ---

8.3 C

13.0 C

13.4 C

13.0 C

0 W/m

0.00 mm

00:35

13.3 C

1016.9 hpa

71 %

0.0 km/h aus 116

0.0 km/h aus ---

8.1 C

12.8 C

13.3 C

12.8 C

0 W/m

0.00 mm

00:40

13.2 C

1016.9 hpa

71 %

0.0 km/h aus 117

0.0 km/h aus ---

8.1 C

12.8 C

13.2 C

12.8 C

0 W/m

0.00 mm

00:45

13.1 C

1016.9 hpa

72 %

0.0 km/h aus 114

0.0 km/h aus ---

8.2 C

12.7 C

13.1 C

12.7 C

0 W/m

0.00 mm

00:50

13.0 C

1016.9 hpa

72 %

0.0 km/h aus 115

0.0 km/h aus ---

8.1 C

12.6 C

13.0 C

12.6 C

0 W/m

0.00 mm

00:55

12.9 C

1016.9 hpa

73 %

0.0 km/h aus 117

0.0 km/h aus ---

8.2 C

12.6 C

12.9 C

12.6 C

0 W/m

0.00 mm

01:00

12.9 C

1016.9 hpa

74 %

0.0 km/h aus 117

0.0 km/h aus ---

8.4 C

12.6 C

12.9 C

12.6 C

0 W/m

0.00 mm

01:05

12.8 C

1016.9 hpa

74 %

0.0 km/h aus 116

0.0 km/h aus ---

8.3 C

12.5 C

12.8 C

12.5 C

0 W/m

0.00 mm

01:10

12.8 C

1016.9 hpa

75 %

0.0 km/h aus 116

0.0 km/h aus ---

8.5 C

12.5 C

12.8 C

12.5 C

0 W/m

0.00 mm

01:15

12.7 C

1017.0 hpa

75 %

0.0 km/h aus 114

0.0 km/h aus ---

8.3 C

12.4 C

12.7 C

12.4 C

0 W/m

0.00 mm

01:20

12.6 C

1017.0 hpa

75 %

0.0 km/h aus 117

0.0 km/h aus ---

8.2 C

12.3 C

12.6 C

12.3 C

0 W/m

0.00 mm

01:25

12.4 C

1017.0 hpa

75 %

0.0 km/h aus 118

0.0 km/h aus ---

8.1 C

12.2 C

12.4 C

12.2 C

0 W/m

0.00 mm

01:30

12.3 C

1017.0 hpa

75 %

0.0 km/h aus 117

0.0 km/h aus ---

8.0 C

12.1 C

12.3 C

12.1 C

0 W/m

0.00 mm

01:35

12.3 C

1017.0 hpa

75 %

0.0 km/h aus 116

0.0 km/h aus ---

8.0 C

12.0 C

12.3 C

12.0 C

0 W/m

0.00 mm

01:40

12.2 C

1017.0 hpa

76 %

0.0 km/h aus 113

0.0 km/h aus ---

8.1 C

11.9 C

12.2 C

11.9 C

0 W/m

0.00 mm

01:45

12.2 C

1016.9 hpa

76 %

0.0 km/h aus 117

0.0 km/h aus ---

8.1 C

11.9 C

12.2 C

11.9 C

0 W/m

0.00 mm

01:50

12.1 C

1016.9 hpa

77 %

0.0 km/h aus 117

0.0 km/h aus ---

8.2 C

11.9 C

12.1 C

11.9 C

0 W/m

0.00 mm

01:55

12.0 C

1016.9 hpa

77 %

0.0 km/h aus 116

0.0 km/h aus ---

8.1 C

11.8 C

12.0 C

11.8 C

0 W/m

0.00 mm

02:00

11.9 C

1016.8 hpa

78 %

0.0 km/h aus 117

0.0 km/h aus ---

8.2 C

11.7 C

11.9 C

11.7 C

0 W/m

0.00 mm

02:05

11.8 C

1016.8 hpa

78 %

0.0 km/h aus 114

0.0 km/h aus ---

8.1 C

11.6 C

11.8 C

11.6 C

0 W/m

0.00 mm

02:10

11.7 C

1016.8 hpa

78 %

0.0 km/h aus 115

0.0 km/h aus ---

8.0 C

11.5 C

11.7 C

11.5 C

0 W/m

0.00 mm

02:15

11.7 C

1016.5 hpa

78 %

0.0 km/h aus 117

0.0 km/h aus ---

8.0 C

11.4 C

11.7 C

11.4 C

0 W/m

0.00 mm

02:20

11.6 C

1016.5 hpa

78 %

0.0 km/h aus 117

0.0 km/h aus ---

7.8 C

11.3 C

11.6 C

11.3 C

0 W/m

0.00 mm

02:25

11.5 C

1016.5 hpa

79 %

0.0 km/h aus 116

0.0 km/h aus ---

8.0 C

11.3 C

11.5 C

11.3 C

0 W/m

0.00 mm

02:30

11.4 C

1016.4 hpa

79 %

0.0 km/h aus 116

0.0 km/h aus ---

7.9 C

11.3 C

11.4 C

11.3 C

0 W/m

0.00 mm

02:35

11.3 C

1016.4 hpa

79 %

0.0 km/h aus 115

0.0 km/h aus ---

7.8 C

11.2 C

11.3 C

11.2 C

0 W/m

0.00 mm

02:40

11.2 C

1016.4 hpa

79 %

0.0 km/h aus 117

0.0 km/h aus ---

7.7 C

11.1 C

11.2 C

11.1 C

0 W/m

0.00 mm

02:45

11.2 C

1016.3 hpa

79 %

0.0 km/h aus 117

0.0 km/h aus ---

7.7 C

11.0 C

11.2 C

11.0 C

0 W/m

0.00 mm

02:50

11.1 C

1016.3 hpa

79 %

0.0 km/h aus 116

0.0 km/h aus ---

7.6 C

10.9 C

11.1 C

10.9 C

0 W/m

0.00 mm

02:55

11.0 C

1016.3 hpa

80 %

0.0 km/h aus 116

0.0 km/h aus ---

7.7 C

10.9 C

11.0 C

10.9 C

0 W/m

0.00 mm

03:00

10.9 C

1016.4 hpa

80 %

0.0 km/h aus 113

0.0 km/h aus ---

7.6 C

10.8 C

10.9 C

10.8 C

0 W/m

0.00 mm

03:05

10.8 C

1016.4 hpa

80 %

0.0 km/h aus 116

0.0 km/h aus ---

7.5 C

10.7 C

10.8 C

10.7 C

0 W/m

0.00 mm

03:10

10.7 C

1016.4 hpa

80 %

0.0 km/h aus 117

0.0 km/h aus ---

7.4 C

10.6 C

10.7 C

10.6 C

0 W/m

0.00 mm

03:15

10.6 C

1016.4 hpa

80 %

0.0 km/h aus 117

0.0 km/h aus ---

7.2 C

10.5 C

10.6 C

10.5 C

0 W/m

0.00 mm

03:20

10.5 C

1016.4 hpa

80 %

0.0 km/h aus 117

0.0 km/h aus ---

7.2 C

10.4 C

10.5 C

10.4 C

0 W/m

0.00 mm

03:25

10.4 C

1016.4 hpa

80 %

0.0 km/h aus 114

0.0 km/h aus ---

7.1 C

10.3 C

10.4 C

10.3 C

0 W/m

0.00 mm

03:30

10.3 C

1016.4 hpa

80 %

0.0 km/h aus 116

0.0 km/h aus ---

7.0 C

10.3 C

10.3 C

10.3 C

0 W/m

0.00 mm

03:35

10.3 C

1016.4 hpa

80 %

0.0 km/h aus 116

0.0 km/h aus ---

7.0 C

10.3 C

10.3 C

10.3 C

0 W/m

0.00 mm

03:40

10.2 C

1016.4 hpa

80 %

0.0 km/h aus 117

0.0 km/h aus ---

6.9 C

10.2 C

10.2 C

10.2 C

0 W/m

0.00 mm

03:45

10.2 C

1016.1 hpa

80 %

0.0 km/h aus 117

0.0 km/h aus ---

6.9 C

10.2 C

10.2 C

10.2 C

0 W/m

0.00 mm

03:50

10.1 C

1016.1 hpa

81 %

0.0 km/h aus 115

0.0 km/h aus ---

6.9 C

10.1 C

10.1 C

10.1 C

0 W/m

0.00 mm

03:55

10.0 C

1016.1 hpa

81 %

0.0 km/h aus 113

0.0 km/h aus ---

6.9 C

10.0 C

10.0 C

10.0 C

0 W/m

0.00 mm

04:00

9.9 C

1015.9 hpa

81 %

0.0 km/h aus 117

0.0 km/h aus ---

6.8 C

9.9 C

9.9 C

9.9 C

0 W/m

0.00 mm

04:05

9.9 C

1015.9 hpa

81 %

0.0 km/h aus 116

0.0 km/h aus ---

6.8 C

9.9 C

9.9 C

9.9 C

0 W/m

0.00 mm

04:10

9.8 C

1015.9 hpa

81 %

0.0 km/h aus 117

0.0 km/h aus ---

6.7 C

9.8 C

9.8 C

9.8 C

0 W/m

0.00 mm

04:15

9.8 C

1015.8 hpa

81 %

0.0 km/h aus 116

0.0 km/h aus ---

6.7 C

9.8 C

9.8 C

9.8 C

0 W/m

0.00 mm

04:20

9.7 C

1015.8 hpa

81 %

0.0 km/h aus 114

0.0 km/h aus ---

6.6 C

9.7 C

9.7 C

9.7 C

0 W/m

0.00 mm

04:25

9.7 C

1015.8 hpa

82 %

0.0 km/h aus 115

0.0 km/h aus ---

6.8 C

9.7 C

9.7 C

9.7 C

0 W/m

0.00 mm

04:30

9.7 C

1015.9 hpa

82 %

0.0 km/h aus 117

0.0 km/h aus ---

6.7 C

9.7 C

9.7 C

9.7 C

0 W/m

0.00 mm

04:35

9.6 C

1015.9 hpa

82 %

0.0 km/h aus 117

0.0 km/h aus ---

6.7 C

9.6 C

9.6 C

9.6 C

0 W/m

0.00 mm

04:40

9.6 C

1015.9 hpa

83 %

0.0 km/h aus 118

0.0 km/h aus ---

6.8 C

9.6 C

9.6 C

9.6 C

0 W/m

0.00 mm

04:45

9.5 C

1015.6 hpa

83 %

0.0 km/h aus 117

0.0 km/h aus ---

6.8 C

9.5 C

9.5 C

9.5 C

0 W/m

0.00 mm

04:50

9.4 C

1015.6 hpa

83 %

0.0 km/h aus 114

0.0 km/h aus ---

6.7 C

9.4 C

9.4 C

9.4 C

0 W/m

0.00 mm

04:55

9.4 C

1015.6 hpa

83 %

0.0 km/h aus 116

0.0 km/h aus ---

6.7 C

9.4 C

9.4 C

9.4 C

3 W/m

0.00 mm

05:00

9.4 C

1015.4 hpa

83 %

0.0 km/h aus 117

0.0 km/h aus ---

6.6 C

9.4 C

9.4 C

9.4 C

6 W/m

0.00 mm

05:05

9.3 C

1015.4 hpa

83 %

0.0 km/h aus 116

0.0 km/h aus ---

6.6 C

9.3 C

9.3 C

9.3 C

7 W/m

0.00 mm

05:10

9.3 C

1015.4 hpa

83 %

0.0 km/h aus 117

0.0 km/h aus ---

6.6 C

9.3 C

9.3 C

9.3 C

10 W/m

0.00 mm

05:15

9.3 C

1015.3 hpa

84 %

0.0 km/h aus 116

0.0 km/h aus ---

6.7 C

9.3 C

9.3 C

9.3 C

12 W/m

0.00 mm

05:20

9.3 C

1015.3 hpa

84 %

0.0 km/h aus 113

0.0 km/h aus ---

6.8 C

9.3 C

9.3 C

9.3 C

15 W/m

0.00 mm

05:25

9.3 C

1015.3 hpa

84 %

0.0 km/h aus 117

0.0 km/h aus ---

6.8 C

9.3 C

9.3 C

9.3 C

18 W/m

0.00 mm

05:30

9.3 C

1015.0 hpa

84 %

0.0 km/h aus 115

0.0 km/h aus ---

6.7 C

9.3 C

9.3 C

9.3 C

21 W/m

0.00 mm

05:35

9.2 C

1015.0 hpa

84 %

0.0 km/h aus 117

0.0 km/h aus ---

6.7 C

9.2 C

9.2 C

9.2 C

25 W/m

0.00 mm

05:40

9.2 C

1015.0 hpa

85 %

0.0 km/h aus 117

0.0 km/h aus ---

6.8 C

9.3 C

9.2 C

9.3 C

27 W/m

0.00 mm

05:45

9.3 C

1014.8 hpa

85 %

0.0 km/h aus 115

0.0 km/h aus ---

6.9 C

9.3 C

9.3 C

9.3 C

31 W/m

0.00 mm

05:50

9.3 C

1014.8 hpa

86 %

0.0 km/h aus 114

0.0 km/h aus ---

7.1 C

9.4 C

9.3 C

9.4 C

33 W/m

0.00 mm

05:55

9.4 C

1014.8 hpa

86 %

0.0 km/h aus 117

0.0 km/h aus ---

7.2 C

9.5 C

9.4 C

9.5 C

35 W/m

0.00 mm

06:00

9.4 C

1014.7 hpa

86 %

0.0 km/h aus 116

0.0 km/h aus ---

7.2 C

9.5 C

9.4 C

9.5 C

36 W/m

0.00 mm

06:05

9.6 C

1014.7 hpa

87 %

0.0 km/h aus 117

0.0 km/h aus ---

7.5 C

9.7 C

9.6 C

9.7 C

49 W/m

0.00 mm

06:10

9.7 C

1014.7 hpa

87 %

0.0 km/h aus 116

0.0 km/h aus ---

7.6 C

9.8 C

9.7 C

9.8 C

87 W/m

0.00 mm

06:15

9.8 C

1014.5 hpa

87 %

0.0 km/h aus 114

0.0 km/h aus ---

7.7 C

9.9 C

9.8 C

9.9 C

104 W/m

0.00 mm

06:20

10.0 C

1014.5 hpa

88 %

0.0 km/h aus 117

0.0 km/h aus ---

8.1 C

10.1 C

10.0 C

10.1 C

121 W/m

0.00 mm

06:25

10.3 C

1014.5 hpa

89 %

0.0 km/h aus 117

0.0 km/h aus ---

8.5 C

10.4 C

10.3 C

10.4 C

138 W/m

0.00 mm

06:30

10.6 C

1014.4 hpa

90 %

0.0 km/h aus 116

0.0 km/h aus ---

9.0 C

10.7 C

10.6 C

10.7 C

155 W/m

0.00 mm

06:35

11.1 C

1014.4 hpa

90 %

0.0 km/h aus 117

0.0 km/h aus ---

9.5 C

11.2 C

11.1 C

11.2 C

173 W/m

0.00 mm

06:40

11.5 C

1014.4 hpa

91 %

0.0 km/h aus 114

0.0 km/h aus ---

10.1 C

11.6 C

11.5 C

11.6 C

188 W/m

0.00 mm

06:45

12.1 C

1014.5 hpa

91 %

0.0 km/h aus 116

0.0 km/h aus ---

10.6 C

12.1 C

12.1 C

12.1 C

202 W/m

0.00 mm

06:50

12.4 C

1014.5 hpa

91 %

0.0 km/h aus 117

0.0 km/h aus ---

11.0 C

12.5 C

12.4 C

12.5 C

227 W/m

0.00 mm

06:55

12.8 C

1014.5 hpa

91 %

0.0 km/h aus 117

0.0 km/h aus ---

11.3 C

12.8 C

12.8 C

12.8 C

247 W/m

0.00 mm

07:00

13.2 C

1014.4 hpa

90 %

0.0 km/h aus 115

0.0 km/h aus ---

11.6 C

13.2 C

13.2 C

13.2 C

266 W/m

0.00 mm

07:05

13.4 C

1014.4 hpa

90 %

0.0 km/h aus 114

0.0 km/h aus ---

11.8 C

13.5 C

13.4 C

13.5 C

278 W/m

0.00 mm

07:10

13.7 C

1014.4 hpa

90 %

0.0 km/h aus 116

0.0 km/h aus ---

12.1 C

13.8 C

13.7 C

13.8 C

280 W/m

0.00 mm

07:15

14.1 C

1014.7 hpa

90 %

0.0 km/h aus 116

0.0 km/h aus ---

12.4 C

14.1 C

14.1 C

14.1 C

266 W/m

0.00 mm

07:20

14.4 C

1014.7 hpa

88 %

1.6 km/h aus 117

9.7 km/h aus NNE

12.4 C

14.4 C

14.4 C

14.4 C

247 W/m

0.00 mm

07:25

14.6 C

1014.7 hpa

87 %

0.0 km/h aus 114

1.6 km/h aus NE

12.5 C

14.6 C

14.6 C

14.6 C

235 W/m

0.00 mm

07:30

14.8 C

1014.6 hpa

85 %

0.0 km/h aus 114

3.2 km/h aus NE

12.3 C

14.8 C

14.8 C

14.8 C

230 W/m

0.00 mm

07:35

15.1 C

1014.6 hpa

84 %

0.0 km/h aus 116

0.0 km/h aus ---

12.4 C

15.1 C

15.1 C

15.1 C

233 W/m

0.00 mm

07:40

15.4 C

1014.6 hpa

79 %

0.0 km/h aus 117

0.0 km/h aus ---

11.8 C

15.3 C

15.4 C

15.3 C

249 W/m

0.00 mm

07:45

15.9 C

1014.5 hpa

78 %

1.6 km/h aus 117

9.7 km/h aus NNE

12.1 C

15.8 C

15.9 C

15.8 C

263 W/m

0.00 mm

07:50

16.1 C

1014.5 hpa

76 %

1.6 km/h aus 115

6.4 km/h aus NNE

11.8 C

15.9 C

16.1 C

15.9 C

280 W/m

0.00 mm

07:55

16.2 C

1014.5 hpa

76 %

1.6 km/h aus 116

8.0 km/h aus NNE

12.0 C

16.1 C

16.2 C

16.1 C

290 W/m

0.00 mm

08:00

16.4 C

1014.6 hpa

76 %

1.6 km/h aus 117

9.7 km/h aus NNE

12.1 C

16.3 C

16.4 C

16.3 C

293 W/m

0.00 mm

08:05

16.6 C

1014.6 hpa

74 %

1.6 km/h aus 117

6.4 km/h aus NNE

12.0 C

16.4 C

16.6 C

16.4 C

316 W/m

0.00 mm

08:10

16.9 C

1014.6 hpa

74 %

0.0 km/h aus 115

6.4 km/h aus NNE

12.2 C

16.8 C

16.9 C

16.8 C

336 W/m

0.00 mm

08:15

17.1 C

1014.3 hpa

74 %

0.0 km/h aus 115

0.0 km/h aus ---

12.4 C

17.0 C

17.1 C

17.0 C

353 W/m

0.00 mm

08:20

17.5 C

1014.3 hpa

73 %

0.0 km/h aus 117

0.0 km/h aus ---

12.6 C

17.4 C

17.5 C

17.4 C

347 W/m

0.00 mm

08:25

17.8 C

1014.3 hpa

72 %

0.0 km/h aus 116

8.0 km/h aus N

12.7 C

17.7 C

17.8 C

17.7 C

362 W/m

0.00 mm

08:30

18.1 C

1014.2 hpa

73 %

1.6 km/h aus 116

11.3 km/h aus NNE

13.2 C

18.2 C

18.1 C

18.2 C

413 W/m

0.00 mm

08:35

18.4 C

1014.2 hpa

70 %

3.2 km/h aus 112

11.3 km/h aus NNE

12.8 C

18.4 C

18.4 C

18.4 C

459 W/m

0.00 mm

08:40

18.8 C

1014.2 hpa

69 %

1.6 km/h aus 117

9.7 km/h aus NE

13.0 C

18.8 C

18.8 C

18.8 C

495 W/m

0.00 mm

08:45

19.1 C

1013.9 hpa

68 %

4.8 km/h aus 117

14.5 km/h aus NE

13.0 C

19.1 C

19.1 C

19.1 C

486 W/m

0.00 mm

08:50

19.1 C

1013.9 hpa

67 %

3.2 km/h aus 117

14.5 km/h aus NE

12.8 C

19.1 C

19.1 C

19.1 C

485 W/m

0.00 mm

08:55

19.1 C

1013.9 hpa

67 %

1.6 km/h aus 116

9.7 km/h aus NNE

12.8 C

19.1 C

19.1 C

19.1 C

471 W/m

0.00 mm

09:00

19.3 C

1013.9 hpa

67 %

3.2 km/h aus 115

9.7 km/h aus N

13.0 C

19.4 C

19.3 C

19.4 C

465 W/m

0.00 mm

09:05

19.4 C

1013.9 hpa

67 %

1.6 km/h aus 116

8.0 km/h aus NNE

13.1 C

19.4 C

19.4 C

19.4 C

485 W/m

0.00 mm

09:10

19.6 C

1013.9 hpa

67 %

4.8 km/h aus 116

14.5 km/h aus NNE

13.3 C

19.7 C

19.6 C

19.7 C

522 W/m

0.00 mm

09:15

19.9 C

1013.9 hpa

66 %

1.6 km/h aus 116

6.4 km/h aus ENE

13.3 C

20.0 C

19.9 C

20.0 C

510 W/m

0.00 mm

09:20

19.8 C

1013.9 hpa

65 %

3.2 km/h aus 113

14.5 km/h aus ENE

13.0 C

19.8 C

19.8 C

19.8 C

488 W/m

0.00 mm

09:25

20.1 C

1013.9 hpa

65 %

3.2 km/h aus 116

9.7 km/h aus N

13.3 C

20.2 C

20.1 C

20.2 C

512 W/m

0.00 mm

09:30

20.2 C

1013.8 hpa

65 %

3.2 km/h aus 116

12.9 km/h aus NE

13.4 C

20.2 C

20.2 C

20.2 C

523 W/m

0.00 mm

09:35

20.3 C

1013.8 hpa

65 %

1.6 km/h aus 116

9.7 km/h aus N

13.5 C

20.3 C

20.3 C

20.3 C

493 W/m

0.00 mm

09:40

20.4 C

1013.8 hpa

65 %

1.6 km/h aus 115

14.5 km/h aus N

13.6 C

20.4 C

20.4 C

20.4 C

532 W/m

0.00 mm

09:45

20.6 C

1013.5 hpa

66 %

4.8 km/h aus 115

14.5 km/h aus NNE

14.0 C

20.6 C

20.6 C

20.6 C

552 W/m

0.00 mm

09:50

20.4 C

1013.5 hpa

65 %

6.4 km/h aus 117

14.5 km/h aus N

13.6 C

20.4 C

20.4 C

20.4 C

507 W/m

0.00 mm

09:55

20.4 C

1013.5 hpa

65 %

3.2 km/h aus 117

12.9 km/h aus NNE

13.6 C

20.4 C

20.4 C

20.4 C

485 W/m

0.00 mm

10:00

20.3 C

1013.3 hpa

66 %

4.8 km/h aus 117

16.1 km/h aus NNE

13.8 C

20.4 C

20.3 C

20.4 C

451 W/m

0.00 mm

10:05

20.4 C

1013.3 hpa

67 %

4.8 km/h aus 115

16.1 km/h aus NNE

14.1 C

20.5 C

20.4 C

20.5 C

521 W/m

0.00 mm

10:10

20.3 C

1013.3 hpa

67 %

3.2 km/h aus 116

14.5 km/h aus NNE

13.9 C

20.4 C

20.3 C

20.4 C

481 W/m

0.00 mm

10:15

20.4 C

1013.2 hpa

67 %

1.6 km/h aus 117

14.5 km/h aus N

14.1 C

20.5 C

20.4 C

20.5 C

451 W/m

0.00 mm

10:20

20.4 C

1013.2 hpa

68 %

4.8 km/h aus 116

19.3 km/h aus NNE

14.3 C

20.6 C

20.4 C

20.6 C

426 W/m

0.00 mm

10:25

20.3 C

1013.2 hpa

67 %

3.2 km/h aus 114

19.3 km/h aus NE

14.0 C

20.4 C

20.3 C

20.4 C

452 W/m

0.00 mm

10:30

20.6 C

1013.1 hpa

66 %

4.8 km/h aus 116

14.5 km/h aus NNW

14.0 C

20.6 C

20.6 C

20.6 C

491 W/m

0.00 mm

10:35

20.5 C

1013.1 hpa

66 %

3.2 km/h aus 117

14.5 km/h aus E

13.9 C

20.5 C

20.5 C

20.5 C

526 W/m

0.00 mm

10:40

21.1 C

1013.1 hpa

68 %

1.6 km/h aus 117

11.3 km/h aus NNE

14.9 C

21.1 C

21.1 C

21.1 C

530 W/m

0.00 mm

10:45

21.0 C

1013.1 hpa

65 %

8.0 km/h aus 115

20.9 km/h aus ENE

14.2 C

20.8 C

21.0 C

20.8 C

509 W/m

0.00 mm

10:50

20.8 C

1013.1 hpa

66 %

6.4 km/h aus 115

17.7 km/h aus NNE

14.2 C

20.7 C

20.8 C

20.7 C

503 W/m

0.00 mm

10:55

21.1 C

1013.1 hpa

66 %

3.2 km/h aus 117

9.7 km/h aus ENE

14.5 C

20.9 C

21.1 C

20.9 C

495 W/m

0.00 mm

11:00

21.1 C

1012.7 hpa

67 %

4.8 km/h aus 118

17.7 km/h aus NE

14.7 C

21.1 C

21.1 C

21.1 C

532 W/m

0.00 mm

11:05

21.4 C

1012.7 hpa

64 %

8.0 km/h aus 115

17.7 km/h aus NE

14.3 C

21.2 C

21.4 C

21.2 C

530 W/m

0.00 mm

11:10

21.4 C

1012.7 hpa

66 %

9.7 km/h aus 115

22.5 km/h aus NNE

14.8 C

21.3 C

21.4 C

21.3 C

572 W/m

0.00 mm

11:15

21.8 C

1012.6 hpa

65 %

6.4 km/h aus 117

16.1 km/h aus NNE

15.0 C

21.8 C

21.8 C

21.8 C

637 W/m

0.00 mm

11:20

22.4 C

1012.6 hpa

62 %

6.4 km/h aus 116

24.1 km/h aus NE

14.7 C

22.5 C

22.4 C

22.5 C

626 W/m

0.00 mm

11:25

22.2 C

1012.6 hpa

61 %

9.7 km/h aus 116

22.5 km/h aus NNE

14.3 C

22.2 C

22.2 C

22.2 C

551 W/m

0.00 mm

11:30

21.9 C

1012.4 hpa

62 %

11.3 km/h aus 114

24.1 km/h aus NNE

14.3 C

21.9 C

21.9 C

21.9 C

434 W/m

0.00 mm

11:35

21.9 C

1012.4 hpa

62 %

9.7 km/h aus 116

20.9 km/h aus E

14.3 C

21.9 C

21.9 C

21.9 C

456 W/m

0.00 mm

11:40

22.1 C

1012.4 hpa

62 %

6.4 km/h aus 116

17.7 km/h aus NE

14.4 C

22.0 C

22.1 C

22.0 C

475 W/m

0.00 mm

11:45

22.3 C

1012.3 hpa

62 %

3.2 km/h aus 117

20.9 km/h aus N

14.7 C

22.4 C

22.3 C

22.4 C

561 W/m

0.00 mm

11:50

22.9 C

1012.3 hpa

62 %

6.4 km/h aus 115

14.5 km/h aus NNE

15.3 C

23.3 C

22.9 C

23.3 C

606 W/m

0.00 mm

11:55

23.1 C

1012.3 hpa

60 %

8.0 km/h aus 116

19.3 km/h aus NNE

14.9 C

23.3 C

23.1 C

23.3 C

568 W/m

0.00 mm

12:00

23.0 C

1012.2 hpa

59 %

12.9 km/h aus 117

20.9 km/h aus ENE

14.6 C

22.9 C

22.7 C

23.2 C

615 W/m

0.00 mm

12:05

23.2 C

1012.2 hpa

59 %

9.7 km/h aus 118

22.5 km/h aus NNE

14.8 C

23.5 C

23.2 C

23.5 C

604 W/m

0.00 mm

12:10

23.4 C

1012.2 hpa

59 %

9.7 km/h aus 116

25.7 km/h aus NE

15.0 C

23.8 C

23.4 C

23.8 C

608 W/m

0.00 mm

12:15

23.3 C

1012.1 hpa

59 %

6.4 km/h aus 115

20.9 km/h aus NE

14.8 C

23.6 C

23.3 C

23.6 C

597 W/m

0.00 mm

12:20

23.2 C

1012.1 hpa

60 %

8.0 km/h aus 117

19.3 km/h aus NNE

15.0 C

23.6 C

23.2 C

23.6 C

590 W/m

0.00 mm

12:25

23.4 C

1012.1 hpa

59 %

6.4 km/h aus 116

24.1 km/h aus NNE

14.9 C

23.7 C

23.4 C

23.7 C

586 W/m

0.00 mm

12:30

23.6 C

1011.8 hpa

59 %

9.7 km/h aus 116

24.1 km/h aus NE

15.1 C

24.0 C

23.6 C

24.0 C

561 W/m

0.00 mm

12:35

23.1 C

1011.8 hpa

60 %

8.0 km/h aus 113

20.9 km/h aus NE

14.9 C

23.4 C

23.1 C

23.4 C

422 W/m

0.00 mm

12:40

22.9 C

1011.8 hpa

60 %

9.7 km/h aus 117

22.5 km/h aus NNE

14.8 C

23.2 C

22.9 C

23.2 C

461 W/m

0.00 mm

12:45

22.9 C

1011.7 hpa

62 %

4.8 km/h aus 117

14.5 km/h aus NE

15.3 C

23.3 C

22.9 C

23.3 C

453 W/m

0.00 mm

12:50

22.9 C

1011.7 hpa

61 %

9.7 km/h aus 117

22.5 km/h aus ENE

15.0 C

23.3 C

22.9 C

23.3 C

479 W/m

0.00 mm

12:55

23.0 C

1011.7 hpa

60 %

11.3 km/h aus 115

20.9 km/h aus NE

14.8 C

23.3 C

23.0 C

23.3 C

471 W/m

0.00 mm

13:00

23.1 C

1011.6 hpa

60 %

9.7 km/h aus 116

20.9 km/h aus NNE

14.9 C

23.3 C

23.1 C

23.3 C

452 W/m

0.00 mm

13:05

23.2 C

1011.6 hpa

61 %

6.4 km/h aus 117

17.7 km/h aus NE

15.3 C

23.6 C

23.2 C

23.6 C

489 W/m

0.00 mm

13:10

23.3 C

1011.6 hpa

60 %

6.4 km/h aus 118

20.9 km/h aus NNE

15.1 C

23.7 C

23.3 C

23.7 C

477 W/m

0.00 mm

13:15

23.1 C

1011.3 hpa

60 %

9.7 km/h aus 116

22.5 km/h aus NNE

14.9 C

23.3 C

23.1 C

23.3 C

424 W/m

0.00 mm

13:20

23.0 C

1011.3 hpa

61 %

6.4 km/h aus 115

19.3 km/h aus NE

15.1 C

23.3 C

23.0 C

23.3 C

428 W/m

0.00 mm

13:25

22.8 C

1011.3 hpa

61 %

11.3 km/h aus 117

20.9 km/h aus NNE

14.9 C

23.1 C

22.8 C

23.1 C

336 W/m

0.00 mm

13:30

22.7 C

1011.1 hpa

61 %

6.4 km/h aus 115

19.3 km/h aus NNE

14.8 C

22.9 C

22.7 C

22.9 C

307 W/m

0.00 mm

13:35

22.7 C

1011.1 hpa

62 %

3.2 km/h aus 117

19.3 km/h aus E

15.1 C

23.0 C

22.7 C

23.0 C

291 W/m

0.00 mm

13:40

22.7 C

1011.1 hpa

62 %

8.0 km/h aus 114

22.5 km/h aus NE

15.1 C

23.0 C

22.7 C

23.0 C

313 W/m

0.00 mm

13:45

22.8 C

1011.1 hpa

63 %

3.2 km/h aus 116

14.5 km/h aus NE

15.4 C

23.1 C

22.8 C

23.1 C

312 W/m

0.00 mm

13:50

22.8 C

1011.1 hpa

63 %

3.2 km/h aus 117

11.3 km/h aus NNE

15.4 C

23.2 C

22.8 C

23.2 C

281 W/m

0.00 mm

13:55

22.7 C

1011.1 hpa

62 %

4.8 km/h aus 116

14.5 km/h aus NNE

15.0 C

22.9 C

22.7 C

22.9 C

256 W/m

0.00 mm

14:00

22.7 C

1010.8 hpa

62 %

1.6 km/h aus 114

6.4 km/h aus ENE

15.1 C

23.0 C

22.7 C

23.0 C

243 W/m

0.00 mm

14:05

22.6 C

1010.8 hpa

63 %

3.2 km/h aus 116

14.5 km/h aus ENE

15.2 C

22.8 C

22.6 C

22.8 C

222 W/m

0.00 mm

14:10

22.5 C

1010.8 hpa

63 %

0.0 km/h aus 116

6.4 km/h aus ENE

15.1 C

22.7 C

22.5 C

22.7 C

211 W/m

0.00 mm

14:15

22.5 C

1010.6 hpa

64 %

0.0 km/h aus 117

4.8 km/h aus ENE

15.3 C

22.7 C

22.5 C

22.7 C

205 W/m

0.00 mm

14:20

22.4 C

1010.6 hpa

64 %

0.0 km/h aus 115

0.0 km/h aus ---

15.3 C

22.7 C

22.4 C

22.7 C

193 W/m

0.00 mm

14:25

22.4 C

1010.6 hpa

65 %

0.0 km/h aus 115

4.8 km/h aus ENE

15.5 C

22.6 C

22.4 C

22.6 C

169 W/m

0.00 mm

14:30

22.4 C

1010.4 hpa

65 %

1.6 km/h aus 116

8.0 km/h aus NE

15.5 C

22.6 C

22.4 C

22.6 C

167 W/m

0.00 mm

14:35

22.4 C

1010.4 hpa

65 %

1.6 km/h aus 116

12.9 km/h aus NNE

15.5 C

22.6 C

22.4 C

22.6 C

167 W/m

0.00 mm

14:40

22.3 C

1010.4 hpa

64 %

3.2 km/h aus 115

8.0 km/h aus ENE

15.2 C

22.5 C

22.3 C

22.5 C

170 W/m

0.00 mm

14:45

22.3 C

1010.5 hpa

65 %

0.0 km/h aus 112

0.0 km/h aus ---

15.4 C

22.6 C

22.3 C

22.6 C

179 W/m

0.00 mm

14:50

22.4 C

1010.5 hpa

66 %

0.0 km/h aus 117

3.2 km/h aus E

15.7 C

22.7 C

22.4 C

22.7 C

189 W/m

0.00 mm

14:55

22.3 C

1010.5 hpa

66 %

0.0 km/h aus 117

0.0 km/h aus ---

15.7 C

22.6 C

22.3 C

22.6 C

185 W/m

0.00 mm

15:00

22.2 C

1010.5 hpa

67 %

3.2 km/h aus 116

11.3 km/h aus ESE

15.8 C

22.5 C

22.2 C

22.5 C

176 W/m

0.00 mm

15:05

22.0 C

1010.5 hpa

68 %

1.6 km/h aus 113

8.0 km/h aus ESE

15.8 C

22.2 C

22.0 C

22.2 C

171 W/m

0.00 mm

15:10

21.9 C

1010.5 hpa

69 %

0.0 km/h aus 116

1.6 km/h aus E

16.0 C

22.2 C

21.9 C

22.2 C

157 W/m

0.00 mm

15:15

21.9 C

1010.4 hpa

70 %

0.0 km/h aus 116

0.0 km/h aus ---

16.2 C

22.2 C

21.9 C

22.2 C

136 W/m

0.00 mm

15:20

21.8 C

1010.4 hpa

71 %

0.0 km/h aus 117

0.0 km/h aus ---

16.3 C

22.1 C

21.8 C

22.1 C

136 W/m

0.00 mm

15:25

21.4 C

1010.4 hpa

72 %

0.0 km/h aus 114

0.0 km/h aus ---

16.2 C

21.7 C

21.4 C

21.7 C

149 W/m

0.00 mm

15:30

21.3 C

1010.2 hpa

74 %

0.0 km/h aus 115

0.0 km/h aus ---

16.5 C

21.6 C

21.3 C

21.6 C

164 W/m

0.25 mm

15:35

21.3 C

1010.2 hpa

75 %

0.0 km/h aus 117

0.0 km/h aus ---

16.7 C

21.7 C

21.3 C

21.7 C

157 W/m

0.00 mm

15:40

21.3 C

1010.2 hpa

76 %

0.0 km/h aus 117

0.0 km/h aus ---

16.9 C

21.7 C

21.3 C

21.7 C

118 W/m

0.00 mm

15:45

21.2 C

1010.1 hpa

77 %

1.6 km/h aus 117

4.8 km/h aus E

17.0 C

21.6 C

21.2 C

21.6 C

125 W/m

0.00 mm

15:50

21.0 C

1010.1 hpa

77 %

1.6 km/h aus 113

8.0 km/h aus E

16.8 C

21.5 C

21.0 C

21.5 C

131 W/m

0.00 mm

15:55

20.8 C

1010.1 hpa

78 %

0.0 km/h aus 116

0.0 km/h aus ---

16.9 C

21.4 C

20.8 C

21.4 C

135 W/m

0.00 mm

16:00

20.7 C

1010.0 hpa

79 %

0.0 km/h aus 117

0.0 km/h aus ---

16.9 C

21.4 C

20.7 C

21.4 C

132 W/m

0.00 mm

16:05

20.7 C

1010.0 hpa

80 %

1.6 km/h aus 117

8.0 km/h aus NNE

17.1 C

21.4 C

20.7 C

21.4 C

123 W/m

0.25 mm

16:10

20.7 C

1010.0 hpa

80 %

1.6 km/h aus 115

11.3 km/h aus NE

17.1 C

21.4 C

20.7 C

21.4 C

107 W/m

0.00 mm

16:15

20.6 C

1009.6 hpa

79 %

3.2 km/h aus 115

14.5 km/h aus NNE

16.8 C

21.4 C

20.6 C

21.4 C

100 W/m

0.00 mm

16:20

20.6 C

1009.6 hpa

79 %

1.6 km/h aus 118

8.0 km/h aus NE

16.8 C

21.3 C

20.6 C

21.3 C

113 W/m

0.25 mm

16:25

20.5 C

1009.6 hpa

79 %

0.0 km/h aus 117

0.0 km/h aus ---

16.7 C

21.3 C

20.5 C

21.3 C

136 W/m

0.00 mm

16:30

20.3 C

1009.5 hpa

81 %

0.0 km/h aus 115

0.0 km/h aus ---

16.9 C

21.1 C

20.3 C

21.1 C

173 W/m

0.25 mm

16:35

20.1 C

1009.5 hpa

83 %

0.0 km/h aus 114

0.0 km/h aus ---

17.1 C

20.8 C

20.1 C

20.8 C

155 W/m

0.00 mm

16:40

20.0 C

1009.5 hpa

83 %

0.0 km/h aus 117

0.0 km/h aus ---

17.0 C

20.8 C

20.0 C

20.8 C

109 W/m

0.00 mm

16:45

20.0 C

1009.4 hpa

83 %

0.0 km/h aus 116

4.8 km/h aus N

17.0 C

20.8 C

20.0 C

20.8 C

87 W/m

0.00 mm

16:50

20.0 C

1009.4 hpa

82 %

0.0 km/h aus 117

0.0 km/h aus ---

16.8 C

20.8 C

20.0 C

20.8 C

75 W/m

0.00 mm

16:55

19.9 C

1009.4 hpa

82 %

0.0 km/h aus 115

0.0 km/h aus ---

16.8 C

20.7 C

19.9 C

20.7 C

86 W/m

0.00 mm

17:00

19.9 C

1009.0 hpa

82 %

0.0 km/h aus 115

4.8 km/h aus N

16.8 C

20.7 C

19.9 C

20.7 C

86 W/m

0.00 mm

17:05

19.9 C

1009.0 hpa

82 %

1.6 km/h aus 117

11.3 km/h aus N

16.7 C

20.6 C

19.9 C

20.6 C

93 W/m

0.00 mm

17:10

19.8 C

1009.0 hpa

82 %

0.0 km/h aus 116

6.4 km/h aus N

16.6 C

20.5 C

19.8 C

20.5 C

103 W/m

0.00 mm

17:15

19.7 C

1008.6 hpa

82 %

0.0 km/h aus 116

4.8 km/h aus N

16.6 C

20.4 C

19.7 C

20.4 C

89 W/m

0.00 mm

17:20

19.7 C

1008.6 hpa

82 %

0.0 km/h aus 114

8.0 km/h aus NNE

16.6 C

20.4 C

19.7 C

20.4 C

67 W/m

0.00 mm

17:25

19.7 C

1008.6 hpa

82 %

0.0 km/h aus 118

8.0 km/h aus NNE

16.5 C

20.4 C

19.7 C

20.4 C

51 W/m

0.00 mm

17:30

19.6 C

1008.4 hpa

82 %

0.0 km/h aus 117

4.8 km/h aus NNE

16.5 C

20.3 C

19.6 C

20.3 C

36 W/m

0.00 mm

17:35

19.6 C

1008.4 hpa

83 %

1.6 km/h aus 116

9.7 km/h aus ENE

16.6 C

20.3 C

19.6 C

20.3 C

31 W/m

0.00 mm

17:40

19.5 C

1008.4 hpa

83 %

1.6 km/h aus 114

6.4 km/h aus NE

16.5 C

20.2 C

19.5 C

20.2 C

28 W/m

0.00 mm

17:45

19.5 C

1008.1 hpa

83 %

1.6 km/h aus 116

4.8 km/h aus NE

16.5 C

20.2 C

19.5 C

20.2 C

34 W/m

0.00 mm

17:50

19.5 C

1008.1 hpa

84 %

0.0 km/h aus 117

3.2 km/h aus NE

16.7 C

20.2 C

19.5 C

20.2 C

45 W/m

0.00 mm

17:55

19.5 C

1008.1 hpa

84 %

0.0 km/h aus 117

0.0 km/h aus ---

16.7 C

20.2 C

19.5 C

20.2 C

47 W/m

0.00 mm

18:00

19.4 C

1008.0 hpa

84 %

0.0 km/h aus 116

0.0 km/h aus ---

16.7 C

20.2 C

19.4 C

20.2 C

36 W/m

0.00 mm

18:05

19.4 C

1008.0 hpa

84 %

0.0 km/h aus 114

4.8 km/h aus NE

16.7 C

20.2 C

19.4 C

20.2 C

26 W/m

0.00 mm

18:10

19.4 C

1008.0 hpa

84 %

0.0 km/h aus 117

6.4 km/h aus NE

16.7 C

20.2 C

19.4 C

20.2 C

23 W/m

0.00 mm

18:15

19.4 C

1007.6 hpa

84 %

0.0 km/h aus 117

4.8 km/h aus NE

16.7 C

20.2 C

19.4 C

20.2 C

19 W/m

0.00 mm

18:20

19.3 C

1007.6 hpa

84 %

0.0 km/h aus 117

1.6 km/h aus NNE

16.6 C

20.0 C

19.3 C

20.0 C

16 W/m

0.00 mm

18:25

19.3 C

1007.6 hpa

84 %

1.6 km/h aus 115

6.4 km/h aus NE

16.6 C

20.0 C

19.3 C

20.0 C

24 W/m

0.00 mm

18:30

19.3 C

1007.7 hpa

84 %

1.6 km/h aus 115

8.0 km/h aus ENE

16.5 C

19.9 C

19.3 C

19.9 C

28 W/m

0.00 mm

18:35

19.3 C

1007.7 hpa

84 %

1.6 km/h aus 117

6.4 km/h aus ENE

16.5 C

19.9 C

19.3 C

19.9 C

30 W/m

0.00 mm

18:40

19.3 C

1007.7 hpa

84 %

0.0 km/h aus 117

8.0 km/h aus NE

16.5 C

19.9 C

19.3 C

19.9 C

34 W/m

0.00 mm

18:45

19.3 C

1007.8 hpa

85 %

0.0 km/h aus 115

1.6 km/h aus NE

16.7 C

19.9 C

19.3 C

19.9 C

29 W/m

0.00 mm

18:50

19.3 C

1007.8 hpa

85 %

0.0 km/h aus 114

0.0 km/h aus ---

16.7 C

19.9 C

19.3 C

19.9 C

25 W/m

0.00 mm

18:55

19.3 C

1007.8 hpa

85 %

0.0 km/h aus 117

0.0 km/h aus ---

16.7 C

19.9 C

19.3 C

19.9 C

27 W/m

0.00 mm

19:00

19.3 C

1007.5 hpa

85 %

0.0 km/h aus 117

0.0 km/h aus ---

16.7 C

19.9 C

19.3 C

19.9 C

24 W/m

0.00 mm

19:05

19.3 C

1007.5 hpa

85 %

0.0 km/h aus 117

0.0 km/h aus ---

16.7 C

19.9 C

19.3 C

19.9 C

22 W/m

0.00 mm

19:10

19.3 C

1007.5 hpa

85 %

0.0 km/h aus 114

0.0 km/h aus ---

16.7 C

19.9 C

19.3 C

19.9 C

27 W/m

0.00 mm

19:15

19.3 C

1007.4 hpa

85 %

0.0 km/h aus 116

0.0 km/h aus ---

16.7 C

19.9 C

19.3 C

19.9 C

30 W/m

0.00 mm

19:20

19.3 C

1007.4 hpa

85 %

0.0 km/h aus 117

0.0 km/h aus ---

16.7 C

20.0 C

19.3 C

20.0 C

37 W/m

0.00 mm

19:25

19.3 C

1007.4 hpa

85 %

0.0 km/h aus 116

0.0 km/h aus ---

16.7 C

20.0 C

19.3 C

20.0 C

46 W/m

0.00 mm

19:30

19.3 C

1007.1 hpa

85 %

0.0 km/h aus 117

6.4 km/h aus ENE

16.7 C

20.0 C

19.3 C

20.0 C

46 W/m

0.00 mm

19:35

19.3 C

1007.1 hpa

85 %

1.6 km/h aus 114

8.0 km/h aus E

16.7 C

20.0 C

19.3 C

20.0 C

55 W/m

0.00 mm

19:40

19.3 C

1007.1 hpa

85 %

3.2 km/h aus 116

9.7 km/h aus E

16.7 C

20.0 C

19.3 C

20.0 C

56 W/m

0.00 mm

19:45

19.3 C

1007.0 hpa

84 %

4.8 km/h aus 117

17.7 km/h aus E

16.6 C

20.0 C

19.3 C

20.0 C

45 W/m

0.00 mm

19:50

19.4 C

1007.0 hpa

84 %

8.0 km/h aus 117

16.1 km/h aus E

16.6 C

20.1 C

19.4 C

20.1 C

35 W/m

0.00 mm

19:55

19.4 C

1007.0 hpa

83 %

8.0 km/h aus 115

17.7 km/h aus E

16.5 C

20.1 C

19.4 C

20.1 C

26 W/m

0.00 mm

20:00

19.6 C

1007.0 hpa

83 %

9.7 km/h aus 116

22.5 km/h aus E

16.6 C

20.3 C

19.6 C

20.3 C

21 W/m

0.00 mm

20:05

19.7 C

1007.0 hpa

83 %

12.9 km/h aus 117

22.5 km/h aus E

16.7 C

20.1 C

19.3 C

20.4 C

18 W/m

0.00 mm

20:10

19.8 C

1007.0 hpa

82 %

14.5 km/h aus 117

27.4 km/h aus ESE

16.6 C

19.7 C

19.0 C

20.5 C

20 W/m

0.00 mm

20:15

19.8 C

1007.0 hpa

82 %

9.7 km/h aus 116

24.1 km/h aus E

16.7 C

20.6 C

19.8 C

20.6 C

22 W/m

0.00 mm

20:20

19.9 C

1007.0 hpa

82 %

11.3 km/h aus 114

20.9 km/h aus S

16.8 C

20.7 C

19.9 C

20.7 C

18 W/m

0.00 mm

20:25

19.9 C

1007.0 hpa

82 %

14.5 km/h aus 117

27.4 km/h aus E

16.8 C

19.9 C

19.2 C

20.7 C

21 W/m

0.00 mm

20:30

20.0 C

1007.0 hpa

82 %

12.9 km/h aus 117

25.7 km/h aus E

16.8 C

20.4 C

19.6 C

20.8 C

26 W/m

0.00 mm

20:35

20.0 C

1007.0 hpa

82 %

8.0 km/h aus 118

22.5 km/h aus ESE

16.8 C

20.8 C

20.0 C

20.8 C

27 W/m

0.00 mm

20:40

19.9 C

1007.0 hpa

83 %

6.4 km/h aus 115

16.1 km/h aus ESE

17.0 C

20.7 C

19.9 C

20.7 C

27 W/m

0.00 mm

20:45

19.9 C

1006.9 hpa

83 %

9.7 km/h aus 116

19.3 km/h aus ESE

17.0 C

20.7 C

19.9 C

20.7 C

26 W/m

0.00 mm

20:50

19.9 C

1006.9 hpa

83 %

8.0 km/h aus 117

20.9 km/h aus ESE

16.9 C

20.7 C

19.9 C

20.7 C

25 W/m

0.00 mm

20:55

19.8 C

1006.9 hpa

83 %

6.4 km/h aus 117

16.1 km/h aus ESE

16.8 C

20.5 C

19.8 C

20.5 C

21 W/m

0.00 mm

21:00

19.7 C

1006.6 hpa

83 %

8.0 km/h aus 116

19.3 km/h aus ESE

16.8 C

20.4 C

19.7 C

20.4 C

18 W/m

0.00 mm

21:05

19.7 C

1006.6 hpa

83 %

4.8 km/h aus 114

17.7 km/h aus SE

16.7 C

20.4 C

19.7 C

20.4 C

15 W/m

0.00 mm

21:10

19.6 C

1006.6 hpa

84 %

8.0 km/h aus 115

16.1 km/h aus SE

16.8 C

20.3 C

19.6 C

20.3 C

12 W/m

0.00 mm

21:15

19.5 C

1006.6 hpa

84 %

4.8 km/h aus 117

11.3 km/h aus SE

16.7 C

20.2 C

19.5 C

20.2 C

9 W/m

0.00 mm

21:20

19.4 C

1006.6 hpa

84 %

4.8 km/h aus 116

11.3 km/h aus ESE

16.7 C

20.2 C

19.4 C

20.2 C

6 W/m

0.00 mm

21:25

19.3 C

1006.6 hpa

84 %

8.0 km/h aus 115

16.1 km/h aus ESE

16.6 C

20.0 C

19.3 C

20.0 C

3 W/m

0.00 mm

21:30

19.3 C

1006.7 hpa

84 %

1.6 km/h aus 114

9.7 km/h aus ESE

16.5 C

19.9 C

19.3 C

19.9 C

0 W/m

0.00 mm

21:35

19.3 C

1006.7 hpa

84 %

1.6 km/h aus 117

9.7 km/h aus ESE

16.5 C

19.9 C

19.3 C

19.9 C

0 W/m

0.00 mm

21:40

19.2 C

1006.7 hpa

85 %

3.2 km/h aus 115

9.7 km/h aus ESE

16.6 C

19.9 C

19.2 C

19.9 C

0 W/m

0.00 mm

21:45

19.2 C

1006.8 hpa

85 %

0.0 km/h aus 115

0.0 km/h aus ---

16.6 C

19.8 C

19.2 C

19.8 C

0 W/m

0.00 mm

21:50

19.2 C

1006.8 hpa

85 %

0.0 km/h aus 114

4.8 km/h aus ENE

16.6 C

19.8 C

19.2 C

19.8 C

0 W/m

0.00 mm

21:55

19.1 C

1006.8 hpa

85 %

3.2 km/h aus 117

19.3 km/h aus E

16.5 C

19.7 C

19.1 C

19.7 C

0 W/m

0.00 mm

22:00

19.1 C

1007.0 hpa

86 %

4.8 km/h aus 117

14.5 km/h aus ESE

16.7 C

19.8 C

19.1 C

19.8 C

0 W/m

0.00 mm

22:05

19.1 C

1007.0 hpa

86 %

6.4 km/h aus 117

14.5 km/h aus SE

16.7 C

19.8 C

19.1 C

19.8 C

0 W/m

0.00 mm

22:10

19.1 C

1007.0 hpa

86 %

8.0 km/h aus 114

20.9 km/h aus ESE

16.7 C

19.8 C

19.1 C

19.8 C

0 W/m

0.00 mm

22:15

19.1 C

1007.0 hpa

86 %

11.3 km/h aus 114

27.4 km/h aus SSE

16.7 C

19.8 C

19.1 C

19.8 C

0 W/m

0.00 mm

22:20

19.1 C

1007.0 hpa

86 %

16.1 km/h aus 117

25.7 km/h aus S

16.7 C

18.6 C

17.9 C

19.7 C

0 W/m

0.00 mm

22:25

19.1 C

1007.0 hpa

86 %

16.1 km/h aus 117

24.1 km/h aus S

16.7 C

18.6 C

17.9 C

19.7 C

0 W/m

0.00 mm

22:30

18.9 C

1007.2 hpa

85 %

11.3 km/h aus 116

20.9 km/h aus SSE

16.4 C

19.5 C

18.9 C

19.5 C

0 W/m

0.00 mm

22:35

18.9 C

1007.2 hpa

85 %

11.3 km/h aus 114

19.3 km/h aus S

16.3 C

19.4 C

18.9 C

19.4 C

0 W/m

0.00 mm

22:40

18.8 C

1007.2 hpa

84 %

8.0 km/h aus 116

24.1 km/h aus S

16.0 C

19.3 C

18.8 C

19.3 C

0 W/m

0.00 mm

22:45

18.7 C

1007.3 hpa

84 %

16.1 km/h aus 117

24.1 km/h aus S

16.0 C

18.1 C

17.6 C

19.2 C

0 W/m

0.00 mm

22:50

18.7 C

1007.3 hpa

83 %

16.1 km/h aus 117

30.6 km/h aus S

15.7 C

18.0 C

17.5 C

19.2 C

0 W/m

0.00 mm

22:55

18.6 C

1007.3 hpa

83 %

16.1 km/h aus 115

27.4 km/h aus S

15.7 C

17.9 C

17.4 C

19.1 C

0 W/m

0.00 mm

23:00

18.6 C

1007.4 hpa

82 %

16.1 km/h aus 115

25.7 km/h aus S

15.5 C

17.9 C

17.4 C

19.1 C

0 W/m

0.00 mm

23:05

18.6 C

1007.4 hpa

82 %

12.9 km/h aus 116

29.0 km/h aus S

15.5 C

18.7 C

18.3 C

19.1 C

0 W/m

0.00 mm

23:10

18.6 C

1007.4 hpa

82 %

16.1 km/h aus 117

24.1 km/h aus SSE

15.5 C

17.9 C

17.4 C

19.1 C

0 W/m

0.00 mm

23:15

18.6 C

1007.3 hpa

82 %

17.7 km/h aus 116

29.0 km/h aus S

15.5 C

17.5 C

17.1 C

19.1 C

0 W/m

0.00 mm

23:20

18.6 C

1007.3 hpa

81 %

19.3 km/h aus 114

33.8 km/h aus S

15.2 C

17.1 C

16.6 C

19.0 C

0 W/m

0.00 mm

23:25

18.6 C

1007.3 hpa

81 %

16.1 km/h aus 117

22.5 km/h aus SSW

15.2 C

17.8 C

17.4 C

19.0 C

0 W/m

0.00 mm

23:30

18.6 C

1007.4 hpa

81 %

19.3 km/h aus 117

35.4 km/h aus S

15.2 C

17.1 C

16.6 C

19.0 C

0 W/m

0.00 mm

23:35

18.5 C

1007.4 hpa

81 %

17.7 km/h aus 117

27.4 km/h aus SSE

15.2 C

17.4 C

16.9 C

18.9 C

0 W/m

0.00 mm

23:40

18.4 C

1007.4 hpa

80 %

20.9 km/h aus 115

32.2 km/h aus S

14.9 C

16.6 C

16.2 C

18.8 C

0 W/m

0.00 mm

23:45

18.3 C

1007.3 hpa

80 %

17.7 km/h aus 115

27.4 km/h aus S

14.8 C

17.1 C

16.7 C

18.7 C

0 W/m

0.00 mm

23:50

18.3 C

1007.3 hpa

80 %

14.5 km/h aus 117

24.1 km/h aus SE

14.8 C

17.9 C

17.5 C

18.7 C

0 W/m

0.00 mm

23:55

18.2 C

1007.3 hpa

80 %

16.1 km/h aus 116

30.6 km/h aus S

14.7 C

17.2 C

16.9 C

18.5 C

0 W/m

0.00 mm